Starlink 11295

operational
NORAD ID: 61536 Int'l Des: 2024-184 Owner: SPXS Country: US Constellation: starlink
LEOCIRCULAR

About Starlink 11295

Description loading...

Live Position

Loading 3D Globe...

Upcoming Passes

Altitude History

Altitude vs Time

uPlot chart will show altitude changes over time

Two-Line Element Set

1 61536U 24184E 25352.09859269 -.00001393 00000-0 -66369-5 0 9998
2 61536 53.1599 278.3945 0001210 116.0078 244.1065 15.69715589 67607
Epoch: Dec 18, 2025 • Age: 27 hours

Current Status

Altitude 375.0 km
Velocity 7.68 km/s
Sub-Earth Point -43.20°S, 55.99°E
Launch Date Oct 15, 2024
Age 1.1 years
Type internet

Technical Details

Classification Payload
Mass 960.00 kg
Dry Mass 910.00 kg
Total Mass 960.00 kg
Length 0.30 m
Diameter 4.10 m
Span 29.00 m
Shape Box + pan
Manufacturer SPXS
Bus Type Starlink V2MD
Phase Status In Orbit
Owner/State SPXS/US

Large Constellations

Loading constellations...